Flag for Italy Weather past 2 weeks in Ancona, Italy

Now
61 °F

Clear.


Feels Like: 61 °F
Forecast: 58 / 74 °F
Wind: 2 mph from North

Location: Falconara

Current Time: Sep 17, 2014 at 11:57:27 PM

Latest Report: Sep 17, 2014 at 10:50 PM


Visibility: 10 mi

Pressure: 30.01 "Hg

Humidity: 94%

Dew point: 59 °F

Location of AnconaLocation

Historic Weather in Ancona — Graph

°F

Ancona temperature yesterday

Maximum temperature yesterday: 73 °F (at 10:50 AM)
Minimum temperature yesterday: 59 °F (at 1:50 AM)
Average temperature yesterday: 66 °F

Past Weeks' High & Low Weather Summary

 TemperatureHumidityPressure
High81 °F (Sep 9, 5:50 PM)100% (Sep 4, 4:50 AM)30.09 "Hg (Sep 4, 4:50 AM)
Low54 °F (Sep 13, 5:50 AM)47% (Sep 14, 12:50 AM)29.77 "Hg (Sep 11, 5:50 AM)
Average67 °F84%29.93 "Hg
* Reported Sep 2 9:50 PM — Sep 17 9:50 PM, Ancona, Weather by CustomWeather, © 2014

Note: Actual official high and low records may vary slightly from our data, if they occured in-between our weather recording intervals... More about our weather records

Advertising

Ancona weather history for previous 24 hours

 ConditionsComfort  
Time TempWeatherWind HumidityBarometerVisibility
9:50 PM
Sep 17
64 °FClear.3 mph83%30.01 "Hg10 mi
8:50 PM66 °FPassing clouds.3 mph78%30.01 "HgN/A
7:50 PM66 °FSunny.1 mph78%30.01 "Hg10 mi
6:50 PM70 °FSunny.6 mph69%29.98 "Hg10 mi
5:50 PM72 °FSunny.6 mph65%29.98 "Hg10 mi
4:50 PM73 °FSunny.10 mph61%29.98 "Hg10 mi
3:50 PM73 °FPassing clouds.10 mph65%29.98 "HgN/A
2:50 PM72 °FPassing clouds.8 mph78%30.01 "HgN/A
1:50 PM73 °FPassing clouds.8 mph74%30.01 "HgN/A
12:50 PM73 °FPassing clouds.8 mph74%30.01 "HgN/A
11:50 AM72 °FScattered clouds.9 mph78%30.01 "HgN/A
10:50 AM70 °FPassing clouds.8 mph83%30.01 "HgN/A
9:50 AM68 °FScattered clouds.3 mph83%30.01 "HgN/A
8:50 AM64 °FPassing clouds.3 mph88%30.01 "HgN/A
7:50 AM61 °FSunny.3 mph94%30.01 "Hg10 mi
6:50 AM59 °FClear.5 mph94%30.01 "Hg10 mi
5:50 AM59 °FPassing clouds.3 mph94%29.98 "HgN/A
4:50 AM59 °FClear.5 mph94%29.98 "Hg10 mi
3:50 AM59 °FClear.3 mph100%30.01 "Hg10 mi
2:50 AM59 °FClear.5 mph94%30.01 "Hg10 mi
1:50 AM59 °FClear.5 mph100%30.01 "Hg10 mi
12:50 AM61 °FClear.2 mph94%30.01 "Hg10 mi
11:50 PM
Sep 16
61 °FClear.3 mph100%30.01 "Hg10 mi
Weather by CustomWeather, © 2014

See weather overviewHow to use our weather pages